User: anonymous   Login
Location: Unspecified
(0.0000°N, 0.0000°E)
Time: 20:53:57
(UTC+00:00)
Language:

ELFIN A - Orbit

View from above orbital plane
View from above orbital plane
View from above satellite
View from above satellite

Ground track
Ground track

The orbit data is extracted from the following two-line orbital elements,

1 43617U 18070E   21019.87226632  .00004948  00000-0  11248-3 0  9990
2 43617  93.0264 245.0114 0012535 207.0467 153.0137 15.42954447131860
Epoch (UTC): 19 January 2021 20:56:03
Eccentricity: 0.0012535
inclination: 93.0264°
perigee height: 429 km
apogee height: 446 km
right ascension of ascending node: 245.0114°
argument of perigee: 207.0467°
revolutions per day: 15.42954447
mean anomaly at epoch: 153.0137°
orbit number at epoch: 13186

The dashed part of the orbit path shows where the satellite is in the earth's shadow,  

DLR